Location: Unspecified
(0.0000°N, 0.0000°E)
Time: 14:20:13
(UTC+00:00)

CZ-4 DEB - Pass Details

Date: 26 June 2024
Orbit: 785 x 976 km, 99.1° (Epoch: 18 July)

Event Time Altitude Azimuth Distance (km) Brightness Sun altitude
Exits shadow 20:48:43 33° 254° (WSW) 1,578 ? -37.4°
Maximum altitude 20:48:52 33° 257° (WSW) 1,577 ? -37.4°
Drops below altitude 10° 20:54:15 10° 319° (NW) 2,717 ? -38.6°
Sets 20:56:59 0° 328° (NNW) 3,659 ? -39.2°
